Lake Charles Regional Airport Lake Charles US
ICAO: KLCH
IATA: LCH
Category: Medium
Scheduled Services: Yes

Elevation: 15 ft
TransAlt. 18000 ft.

Airport Communications:
APP/DEP:119.35
ATIS:118.75
CLNC DEL:126.25
CTAF:120.7
GND:121.8
DE RIDDER RDO:122.3
TWR:120.7
UNICOM:122.95

KLCH Zoom In..

If you have problems with the map follow the link
https://www.worldairports.se/pages/airport.php?
ICAO=KLCH

Runways:

(A) RW 05 length 5200 ft width 100 ft
---- / hdg 49

(B) RW 15 length 6500 ft width 150 ft
ILS 109.10 / hdg 152

(C) RW 23 length 5200 ft width 100 ft
---- / hdg 229

(D) RW 33 length 6500 ft width 150 ft
---- / hdg 332

Location; KLCH
Day. 17 / Time. 21.53 Zulu
* Altimeter: 30.20
* Temperature: 22° c. 71.6°f.
* Wind from: 120° Speed 12 kn.
Dewpoint: 16° c.
Visibility: 10 Statute Miles.
Clouds: Broken 2200 ft.

KLCH 172153Z 12012KT 10SM BKN022 22/16 A3020 RMK AO2 SLP234 T02220161


Wind From 120°
Speed 12 kn.

 
 
jpsmedia worldairports.se 2020   terms of use